RH
72 57 64 65 80 41 56 78 81 77 70 80 86 78 76 82 80 82 83 85 82 72 61 46 42 51 61 67 67 68 68 65 66 65 59 70 72 67 74 83 76 78 87
59 60 65 66 74 57 38 74 83 77 68 81 79 60 55 82 88 89 88 80 80 52 48 46 42 36 38 68 72 79 83 81 83 80 77 73 73 71 73 76 76 76 85
56 59 67 70 67 68 36 38 64 59 44 68 62 46 39 58 74 75 65 75 52 50 49 49 47 45 47 72 78 83 82 76 78 82 77 76 74 72 80 77 74 82 87
53 59 63 71 72 66 47 39 40 39 43 44 46 42 42 43 47 49 54 54 53 52 53 52 49 47 50 70 81 84 88 94 94 88 83 82 90 82 81 80 80 74 73
56 63 58 64 72 69 65 42 44 45 45 46 46 46 47 43 44 49 53 55 55 54 54 56 54 50 50 69 90 87 83 82 84 82 83 82 84 87 85 82 84 86 85
71 64 59 60 65 67 65 46 42 45 48 50 52 50 49 47 47 50 55 58 58 56 56 57 57 54 51 62 85 84 86 78 76 72 83 80 73 71 58 53 52 52 52
89 74 63 60 64 72 68 71 53 45 49 56 57 54 53 51 52 56 59 60 60 58 58 58 59 56 52 52 82 85 86 80 77 76 71 71 68 42 40 42 49 53 55
86 74 68 64 70 73 72 72 75 54 57 63 61 56 57 57 56 57 60 61 61 60 60 60 61 59 56 56 83 79 83 83 78 80 84 89 84 79 65 59 59 59 58
81 64 67 67 72 72 73 74 79 64 65 66 61 60 68 57 55 55 56 57 58 59 61 62 64 63 60 58 79 84 83 82 80 81 87 90 78 69 64 60 59 58 56
80 63 62 68 70 72 74 83 77 78 70 64 64 63 62 63 63 61 58 59 59 60 65 68 69 70 66 62 68 84 84 81 81 81 83 89 78 66 59 55 51 47 43
84 78 60 72 80 70 68 83 81 78 77 73 70 71 74 74 68 63 63 63 66 72 76 76 76 79 77 73 77 80 86 83 85 84 72 56 46 42 41 38 33 30 27
88 84 80 73 79 79 78 77 75 75 73 72 76 78 89 86 89 71 70 72 77 83 82 82 82 82 83 81 77 76 78 91 89 85 66 51 43 36 34 32 26 20 16
86 88 82 81 76 80 78 83 82 79 80 84 83 96 99 90 83 89 87 82 88 90 76 85 82 74 82 95 85 74 63 75 77 67 53 42 41 32 27 24 20 16 14
85 87 88 83 83 82 82 82 82 81 83 92 92 85 75 80 95 92 86 92 91 93 90 86 88 81 74 72 56 55 60 61 62 54 47 38 30 27 22 19 16 15 15
83 88 84 90 85 88 84 82 87 85 87 83 96 80 90 94 91 94 92 89 91 80 79 73 70 66 58 51 43 38 39 40 48 40 33 28 24 22 21 19 17 17 17
81 85 88 88 92 89 84 88 86 82 91 85 92 76 93 95 86 87 87 87 81 73 70 60 50 41 33 28 28 25 24 23 22 26 25 25 26 23 22 21 19 18 18
79 78 89 87 92 92 90 88 88 84 86 89 88 74 84 91 89 92 95 87 85 83 64 53 46 43 36 31 27 25 23 22 21 21 23 24 24 21 18 18 18 18 18
73 65 71 87 86 92 95 87 90 88 85 90 89 93 95 91 91 88 91 92 99 85 57 54 49 42 39 33 29 27 25 24 23 21 19 20 19 19 18 19 20 19 20
74 49 48 67 82 96 92 86 86 83 82 82 81 87 89 95 95 88 90 89 90 70 61 58 53 42 39 36 33 31 29 28 26 26 24 22 22 21 21 21 21 21 22
73 53 50 58 79 96 90 83 77 72 78 92 93 94 90 89 86 84 91 81 77 63 59 59 59 56 52 49 43 40 37 33 31 32 33 28 26 24 24 24 24 24 25
76 77 67 56 69 84 82 80 80 72 79 93 93 89 93 88 81 78 76 75 70 70 70 68 66 63 61 56 51 40 40 38 34 35 38 41 35 42 38 35 39 36 32
79 78 78 75 64 65 71 76 78 74 80 94 96 97 96 89 88 81 77 81 84 84 86 82 77 78 77 76 71 63 58 45 41 47 46 46 54 44 48 61 53 48 48
76 80 78 79 77 66 70 78 87 89 86 95 96 94 92 88 82 80 83 76 76 74 80 79 76 74 71 82 86 84 81 77 67 51 53 60 56 60 70 71 72 61 68
76 81 82 81 85 83 78 84 83 85 86 86 82 84 77 80 82 78 79 81 82 83 78 57 60 66 61 59 62 76 86 94 91 84 72 64 62 72 78 78 79 84 76
76 80 83 84 86 86 85 87 89 87 83 90 92 79 82 80 78 78 77 76 78 80 61 52 55 56 56 55 58 57 60 75 84 95 89 74 67 73 70 80 77 81 87
61 79 85 85 86 87 86 88 88 92 94 94 83 84 83 79 79 79 74 76 78 69 43 42 40 35 31 27 23 22 60 98 98 98 92 88 80 36 59 51 51 62 41
Wind_Speed
14 13 13 14 15 15 18 16 17 18 17 18 17 14 16 16 17 17 19 19 19 17 20 19 20 19 19 19 20 20 20 19 19 17 16 17 17 16 16 17 17 18 18
19 16 15 15 15 15 16 17 15 14 16 16 13 13 14 16 17 19 21 18 15 19 21 22 21 19 19 19 21 21 19 18 18 18 15 15 16 16 16 16 16 17 16
19 18 17 16 15 15 15 14 14 12 14 12 12 13 16 17 18 19 20 19 20 20 21 21 21 20 20 21 20 18 17 15 15 15 13 14 14 14 15 15 14 15 14
19 19 17 17 16 14 15 15 14 13 14 14 14 16 16 18 17 18 18 18 19 19 19 19 19 19 19 19 19 17 16 14 13 12 12 11 14 15 14 14 15 13 12
18 18 17 16 16 14 14 14 14 15 14 15 15 16 15 16 16 16 17 17 17 17 17 17 18 18 18 20 19 17 14 12 12 10 8 10 13 14 13 13 13 14 13
19 17 16 16 16 14 14 14 13 13 14 14 13 14 14 14 15 15 15 14 14 14 15 15 15 16 16 17 16 16 13 9 8 4 6 9 10 9 9 9 9 8 8
17 14 17 17 15 15 15 14 13 12 13 12 12 12 13 13 13 13 12 12 11 12 12 13 13 14 14 15 14 14 11 8 7 10 10 11 12 9 9 9 10 9 9
16 16 17 18 17 15 15 14 13 12 12 11 11 10 11 11 10 10 9 9 9 9 10 11 12 12 13 14 12 11 12 9 7 7 7 10 9 9 9 8 7 7 7
13 18 18 18 17 16 14 14 13 12 12 11 10 9 9 8 8 7 7 7 7 7 8 9 10 11 12 12 12 10 9 8 4 3 4 3 6 7 7 6 6 6 6
13 18 17 17 16 16 16 14 13 12 11 10 10 9 7 6 6 5 4 5 6 6 7 8 9 9 10 11 12 11 9 5 2 3 5 3 5 5 6 6 7 7 7
17 12 16 16 15 14 14 14 11 11 10 10 9 8 6 6 5 5 5 5 6 7 7 7 7 7 7 8 8 7 6 5 3 5 7 6 7 7 7 7 7 7 7
20 16 12 14 15 12 12 12 11 10 9 8 8 6 6 5 4 5 6 6 7 7 8 7 4 3 4 3 4 2 3 3 5 9 8 8 8 9 8 8 8 8 8
23 21 16 13 12 11 9 11 11 10 9 5 6 6 6 2 5 5 7 6 6 6 6 5 5 5 3 2 2 2 1 3 7 8 9 9 9 9 9 9 8 8 8
25 23 20 19 16 14 11 12 10 9 7 9 9 6 5 4 6 5 3 5 4 3 4 2 1 2 2 2 3 2 3 4 7 9 10 10 10 10 10 9 8 9 9
27 25 24 21 18 16 15 13 12 11 11 7 11 4 7 5 8 6 4 3 3 2 2 2 2 3 4 5 5 6 6 7 8 10 11 11 10 10 9 9 9 10 10
27 27 25 24 20 18 16 14 14 12 12 10 10 7 10 7 6 5 4 4 4 3 2 3 3 3 4 4 4 6 5 6 7 10 11 11 11 10 10 10 10 11 11
26 26 28 25 23 19 18 18 16 16 15 13 10 6 12 7 6 5 2 2 3 3 4 4 5 5 6 6 6 6 7 8 8 8 9 11 11 11 11 11 12 12 13
22 24 31 26 21 23 19 23 20 17 16 15 11 10 8 8 7 6 3 1 2 5 5 4 5 5 6 7 8 8 8 9 9 9 9 10 12 13 13 13 14 14 14
20 21 28 28 23 23 23 21 20 19 15 12 9 11 12 8 9 5 4 3 4 5 4 4 5 7 7 9 9 10 10 9 8 8 9 11 12 14 15 15 16 17 16
17 19 23 27 26 24 21 19 18 17 16 14 11 9 10 9 6 8 6 6 6 4 5 6 7 9 10 11 11 10 10 7 6 4 7 9 11 12 14 16 16 16 17
17 17 19 25 26 25 23 22 20 18 18 15 13 12 11 10 9 8 7 6 5 5 6 7 7 8 9 12 13 12 6 10 4 5 8 15 8 15 15 15 20 22 21
24 21 19 19 22 24 23 20 18 15 18 16 17 12 13 11 8 7 7 7 7 7 7 8 9 8 8 11 13 13 9 6 1 14 11 9 14 11 15 23 22 21 22
28 28 23 20 19 22 23 20 16 14 16 19 19 17 16 12 8 6 5 5 6 7 6 9 9 8 8 7 10 8 5 5 25 11 17 7 9 15 22 21 22 23 27
31 29 28 23 20 20 23 23 20 21 19 18 16 16 14 11 8 4 2 4 7 7 9 7 6 6 7 8 8 8 8 11 8 17 15 24 22 25 24 23 21 22 24
36 32 29 28 24 21 21 23 24 23 20 18 17 17 14 12 9 7 3 7 8 8 8 5 4 5 7 8 10 11 11 10 10 15 30 33 33 31 30 28 26 25 26
37 37 31 31 28 25 25 25 25 24 24 22 20 18 17 13 10 10 6 9 8 9 6 4 4 5 6 7 9 10 10 10 16 18 23 28 33 37 34 35 33 30 30
Wind_Direction
154 144 132 117 114 105 115 107 104 104 98 96 94 93 98 93 98 99 90 89 89 86 86 84 85 88 90 91 89 83 79 78 74 69 76 78 79 78 77 73 75 80 76
149 144 134 123 121 109 116 121 109 104 110 98 97 93 98 107 102 97 95 101 97 88 83 80 80 84 90 95 92 86 81 77 74 68 68 76 78 78 76 74 72 78 73
152 143 136 126 123 114 114 119 120 110 112 116 100 93 99 104 96 92 97 93 88 86 81 78 77 80 90 99 94 89 83 76 75 75 68 69 72 74 74 73 75 74 72
153 142 137 131 125 119 115 114 118 118 114 109 100 94 95 99 101 100 97 94 88 82 79 77 77 80 89 99 93 84 79 80 79 74 69 69 76 77 79 74 70 71 65
148 142 139 135 130 124 115 114 112 113 109 104 98 94 97 100 101 99 96 92 86 82 78 76 76 78 85 98 99 89 81 79 73 65 59 82 80 76 78 78 77 72 68
138 142 141 138 135 129 123 120 116 114 110 104 99 96 96 93 98 95 91 88 84 79 75 73 75 79 86 102 103 96 96 81 41 59 90 70 68 72 68 67 67 64 62
150 149 148 143 140 135 132 127 123 121 116 110 105 102 100 97 99 99 97 93 85 77 73 71 73 77 81 95 110 106 94 71 40 60 78 74 56 61 66 70 71 69 63
162 161 156 147 145 141 137 134 131 130 123 115 107 102 102 98 98 96 92 86 79 72 69 68 69 72 79 92 112 107 90 72 68 38 58 80 65 55 50 54 53 47 39
167 164 160 152 151 149 144 143 140 136 127 119 112 108 106 104 99 92 86 79 72 69 66 68 73 74 78 89 112 90 92 88 59 25 31 38 45 33 28 25 18 10 4
167 167 162 157 158 156 152 150 145 135 125 118 114 114 115 114 110 100 93 78 73 71 74 77 78 78 80 88 114 113 88 100 41 357 338 327 337 344 347 348 344 342 342
155 159 164 158 155 155 156 153 148 138 130 122 121 118 110 100 90 94 87 83 81 78 77 76 80 84 85 92 118 133 107 62 15 294 327 323 323 329 336 338 337 335 334
160 158 150 166 158 148 155 155 152 145 133 128 127 123 108 107 82 43 76 79 78 78 77 75 76 71 69 76 84 154 109 245 267 306 318 321 328 336 339 336 335 335 339
160 165 166 158 152 165 163 153 145 145 136 137 133 136 133 134 111 75 69 72 85 53 50 55 43 38 56 262 308 348 71 222 289 310 324 327 332 327 327 329 332 334 335
169 170 169 172 172 173 172 158 165 156 157 164 163 158 161 131 143 120 99 72 71 27 46 69 61 18 28 349 325 268 281 273 276 296 314 322 326 325 322 324 326 328 329
177 175 178 175 181 175 168 169 168 168 173 174 171 182 151 158 153 143 157 162 183 225 232 296 300 309 299 307 302 313 307 296 294 298 308 315 320 322 322 320 320 320 320
183 183 182 180 175 173 177 174 176 175 175 191 195 185 166 170 168 165 199 220 237 242 288 276 289 326 329 328 330 322 318 307 297 292 299 307 314 317 317 315 313 313 313
196 194 189 187 176 178 179 180 177 186 198 195 216 175 188 176 163 166 224 279 277 298 288 310 330 338 332 333 336 329 323 320 317 307 300 304 312 315 315 314 312 311 306
204 203 193 192 187 185 187 192 193 196 196 208 203 174 167 175 177 175 186 195 248 308 299 317 321 325 329 326 325 324 323 320 317 312 307 305 307 307 308 309 309 307 305
212 197 188 192 192 190 199 202 204 205 205 191 186 188 195 193 193 165 206 182 275 282 299 309 317 326 327 324 329 325 327 326 317 307 310 308 308 308 310 313 311 309 304
199 193 190 190 193 198 202 202 199 194 191 180 187 184 181 186 192 188 204 238 287 289 298 313 322 326 329 327 330 332 328 324 325 326 343 344 332 324 321 321 317 314 309
203 196 191 191 195 202 200 197 195 188 182 177 177 185 187 208 218 222 238 257 276 280 290 302 312 319 322 328 333 336 355 339 342 19 329 332 340 329 325 328 324 318 314
195 203 205 201 201 201 202 197 200 190 184 183 185 182 193 215 215 233 251 264 272 280 293 305 308 317 328 331 341 347 346 350 348 311 310 316 316 324 325 318 318 318 320
189 196 207 210 208 203 199 194 186 180 186 194 202 207 216 217 223 230 256 294 317 323 323 318 316 320 329 336 339 350 344 322 324 295 325 311 317 306 316 319 316 312 313
189 192 198 213 213 205 200 193 187 192 195 204 203 205 205 201 202 197 272 322 325 320 322 321 326 327 331 336 339 330 320 312 319 316 310 306 314 313 312 308 312 304 302
198 193 195 201 207 209 202 196 193 198 208 205 200 199 193 188 192 194 252 291 303 311 314 314 315 316 322 327 320 317 310 297 296 300 304 310 311 314 313 309 304 299 290
206 202 194 193 203 206 203 201 202 199 202 200 200 194 188 196 210 231 260 271 289 303 305 317 329 331 328 327 325 320 325 327 314 311 305 305 308 314 313 313 316 319 317